Sedalia, MO

5:52 PM CDT on April 30, 2017 (GMT -0500)
Sedalia Memorial

Weather History for KDMO - December, 2013

Change the Weather History Date:

Saturday, December 14, 2013

  Actual Average Record
Temperature  
Mean Temperature 30 °F 35 °F  
Max Temperature 34 °F 44 °F 70 °F (1975)
Min Temperature 25 °F 26 °F -6 °F (1963)
Degree Days  
Heating Degree Days 35 30  
Month to date heating degree days 492 391  
Since 1 July heating degree days 1441 1236  
Cooling Degree Days 0 0  
Month to date cooling degree days 0 0  
Year to date cooling degree days 1485 1490  
Moisture  
Dew Point 28 °F    
Average Humidity 91    
Maximum Humidity 100    
Minimum Humidity 81    
Precipitation  
Precipitation 0.04 in 0.06 in 1.23 in (1992)
Month to date precipitation 1.18 0.99  
Year to date precipitation 40.24 39.78  
Sea Level Pressure  
Sea Level Pressure 30.00 in    
Wind  
Wind Speed 12 mph (NNW)    
Max Wind Speed 23 mph    
Max Gust Speed 28 mph    
Visibility 3 miles    
Events Fog , Snow    
T = Trace of Precipitation, MM = Missing Value Source: NWS Daily Summary

Daily Weather History Graph

Daily Weather History Graph

Search for Another Location

Airport or City:

Trip Planner

Search our weather history database for the weather conditions in past years. The results will help you decide how hot, cold, wet, or windy it might be!

Date:

Astronomy

Dec. 14, 2013 Rise Set
Actual Time 7:23 AM CST 4:52 PM CST
Civil Twilight 6:53 AM CST 5:21 PM CST
Nautical Twilight 6:19 AM CST 5:55 PM CST
Astronomical Twilight 5:47 AM CST 6:27 PM CST
Moon 3:13 PM CST (12/14) 4:45 AM CST (12/14)
Length of Visible Light 10h 28m
Length of Day
9h 28m
Waxing Gibbous, 94% of the Moon is Illuminated
Dec 14
Waxing Gibbous
Dec 17
Full
Dec 25
Last Quarter
Jan 1
New
Jan 7
First Quarter

Hourly Weather History & Observations

Time (CST) Temp. Windchill Dew Point Humidity Pressure Visibility Wind Dir Wind Speed Gust Speed Precip Events Conditions
12:01 AM 34.0 °F - 33.1 °F 96% 29.89 in 2.0 mi Calm Calm - 0.00 in Snow Light Snow
12:10 AM 34.0 °F - 32.0 °F 92% 29.89 in 1.5 mi Calm Calm - 0.01 in Snow Light Snow
12:20 AM 34.0 °F - 32.0 °F 92% 29.89 in 1.2 mi Calm Calm - 0.02 in Snow Light Snow
12:29 AM 34.0 °F - 32.0 °F 92% 29.88 in 1.2 mi Calm Calm - 0.02 in Snow Light Snow
12:32 AM 34.0 °F - 32.0 °F 92% 29.88 in 1.0 mi Calm Calm - 0.02 in Snow Light Snow
12:44 AM 33.1 °F - 32.0 °F 96% 29.87 in 0.8 mi Calm Calm - 0.03 in Snow Light Snow
12:53 AM 33.1 °F 30.0 °F 32.0 °F 96% 29.88 in 0.8 mi ENE 3.5 mph - 0.03 in Snow Light Snow
12:57 AM 33.1 °F - 32.0 °F 96% 29.86 in 1.0 mi Calm Calm - 0.00 in Snow Light Snow
1:12 AM 34.0 °F - 32.0 °F 92% 29.86 in 1.2 mi Calm Calm - 0.00 in   Overcast
1:22 AM 34.0 °F - 32.0 °F 92% 29.86 in 1.2 mi Calm Calm - 0.00 in   Overcast
1:32 AM 34.0 °F - 32.0 °F 92% 29.86 in 1.0 mi Calm Calm - 0.00 in   Mist
1:42 AM 33.1 °F - 32.0 °F 96% 29.86 in 0.5 mi Calm Calm - 0.00 in Fog Fog
1:53 AM 33.1 °F 30.0 °F 32.0 °F 96% 29.88 in 0.5 mi North 3.5 mph - 0.00 in Fog Fog
2:53 AM 33.1 °F 28.7 °F 32.0 °F 96% 29.89 in 0.8 mi NNW 4.6 mph - 0.00 in   Mist
3:50 AM 33.8 °F 27.7 °F 32.0 °F 93% 29.87 in 1.0 mi NNW 6.9 mph - 0.00 in Snow Light Snow
3:53 AM 33.1 °F 26.1 °F 32.0 °F 96% 29.90 in 1.0 mi NNW 8.1 mph - 0.00 in Snow Light Snow
4:01 AM 33.1 °F 26.9 °F 32.0 °F 96% 29.87 in 1.5 mi North 6.9 mph - 0.00 in Snow Light Snow
4:12 AM 33.1 °F 25.5 °F 32.0 °F 96% 29.88 in 2.5 mi North 9.2 mph - 0.00 in Snow Light Snow
4:22 AM 33.1 °F 25.5 °F 32.0 °F 96% 29.88 in 3.0 mi North 9.2 mph - 0.00 in Snow Light Snow
4:49 AM 33.8 °F 26.4 °F 32.0 °F 93% 29.88 in 2.0 mi North 9.2 mph - 0.00 in Snow Light Snow
4:53 AM 33.1 °F 25.5 °F 32.0 °F 96% 29.90 in 2.0 mi North 9.2 mph - 0.00 in Snow Light Snow
5:06 AM 33.1 °F 24.9 °F 32.0 °F 96% 29.89 in 4.0 mi North 10.4 mph - 0.00 in Snow Light Snow
5:22 AM 33.1 °F 23.9 °F 32.0 °F 96% 29.90 in 1.8 mi NNW 12.7 mph - 0.00 in Snow Light Snow
5:26 AM 33.1 °F 23.4 °F 32.0 °F 96% 29.90 in 1.0 mi NNW 13.8 mph - 0.00 in Snow Light Snow
5:34 AM 33.1 °F 24.4 °F 32.0 °F 96% 29.90 in 0.5 mi NNW 11.5 mph - 0.00 in Fog , Snow Light Snow
5:53 AM 33.1 °F 22.6 °F 32.0 °F 96% 29.94 in 0.8 mi NNW 16.1 mph - 0.00 in Snow Light Snow
6:03 AM 33.1 °F 22.6 °F 32.0 °F 96% 29.92 in 1.0 mi NNW 16.1 mph - 0.00 in Snow Light Snow
6:07 AM 33.1 °F 22.2 °F 32.0 °F 96% 29.92 in 1.5 mi NNW 17.3 mph 21.9 mph 0.00 in Snow Light Snow
6:11 AM 33.1 °F 22.2 °F 30.9 °F 92% 29.93 in 3.0 mi NNW 17.3 mph - 0.00 in   Overcast
6:33 AM 32.0 °F 20.5 °F 30.9 °F 96% 29.94 in 1.8 mi NNW 18.4 mph - 0.00 in Snow Light Snow
6:41 AM 32.0 °F 20.5 °F 30.0 °F 92% 29.94 in 1.8 mi NNW 18.4 mph - 0.01 in Snow Light Snow
6:49 AM 30.2 °F 18.5 °F 28.4 °F 93% 29.95 in 2.0 mi NNW 17.3 mph 25.3 mph 0.01 in Snow Light Snow
6:53 AM 30.9 °F 18.4 °F 28.9 °F 92% 29.98 in 2.0 mi NNW 20.7 mph - 0.01 in Snow Light Snow
6:56 AM 30.9 °F 18.4 °F 28.9 °F 92% 29.96 in 1.8 mi NNW 20.7 mph - 0.00 in Snow Light Snow
7:10 AM 30.0 °F 16.9 °F 28.0 °F 92% 29.96 in 3.0 mi NNW 21.9 mph - 0.00 in Snow Light Snow
7:53 AM 30.0 °F 18.7 °F 27.0 °F 88% 30.02 in 2.5 mi NNW 16.1 mph - 0.00 in Snow Light Snow
8:03 AM 28.9 °F 16.9 °F 26.1 °F 89% 29.99 in 3.0 mi North 17.3 mph - 0.00 in   Overcast
8:53 AM 28.9 °F 16.9 °F 27.0 °F 92% 30.05 in 2.5 mi NNW 17.3 mph - 0.00 in   Overcast
9:25 AM 28.9 °F 16.9 °F 27.0 °F 92% 30.04 in 1.8 mi NNW 17.3 mph 21.9 mph N/A   Overcast
9:53 AM 28.9 °F 16.5 °F 26.1 °F 89% 30.09 in 2.0 mi NNW 18.4 mph 23.0 mph N/A   Overcast
10:20 AM 28.9 °F 18.6 °F 26.1 °F 89% 30.07 in 2.5 mi NNW 12.7 mph - N/A   Overcast
10:53 AM 28.9 °F 17.7 °F 26.1 °F 89% 30.10 in 2.5 mi NNW 15.0 mph - N/A   Overcast
11:15 AM 28.9 °F 18.2 °F 26.1 °F 89% 30.07 in 3.0 mi NNW 13.8 mph 25.3 mph N/A   Overcast
11:53 AM 28.0 °F 15.7 °F 26.1 °F 92% 30.09 in 4.0 mi NNW 17.3 mph - N/A   Overcast
12:53 PM 28.0 °F 14.6 °F 25.0 °F 88% 30.09 in 3.0 mi NNW 20.7 mph 27.6 mph N/A   Overcast
1:53 PM 28.0 °F 17.0 °F 25.0 °F 88% 30.10 in 2.5 mi NW 13.8 mph - N/A   Overcast
2:10 PM 28.0 °F 16.1 °F 25.0 °F 88% 30.07 in 3.0 mi NNW 16.1 mph 24.2 mph N/A   Overcast
2:20 PM 28.0 °F 15.3 °F 25.0 °F 88% 30.08 in 2.5 mi NW 18.4 mph 23.0 mph N/A   Overcast
2:48 PM 28.4 °F 16.2 °F 24.8 °F 86% 30.09 in 3.0 mi NW 17.3 mph - N/A   Overcast
2:53 PM 28.0 °F 18.1 °F 25.0 °F 88% 30.12 in 3.0 mi NW 11.5 mph - N/A   Overcast
3:36 PM 28.0 °F 18.1 °F 25.0 °F 88% 30.12 in 4.0 mi NW 11.5 mph 21.9 mph N/A   Overcast
3:53 PM 28.0 °F 20.0 °F 24.1 °F 85% 30.15 in 4.0 mi NW 8.1 mph - N/A   Overcast
4:53 PM 28.0 °F 17.5 °F 24.1 °F 85% 30.18 in 5.0 mi NW 12.7 mph - N/A   Overcast
5:53 PM 28.0 °F 18.1 °F 24.1 °F 85% 30.20 in 7.0 mi NW 11.5 mph - N/A   Overcast
6:34 PM 27.0 °F 18.0 °F 23.0 °F 85% 30.19 in 8.0 mi NW 9.2 mph - N/A   Overcast
6:53 PM 27.0 °F 18.0 °F 23.0 °F 85% 30.22 in 8.0 mi NW 9.2 mph - N/A   Overcast
7:06 PM 27.0 °F 16.7 °F 21.9 °F 81% 30.19 in 8.0 mi NW 11.5 mph - N/A   Overcast
7:17 PM 27.0 °F 16.7 °F 21.9 °F 81% 30.20 in 9.0 mi NW 11.5 mph - N/A   Overcast
7:53 PM 27.0 °F 19.5 °F 21.9 °F 81% 30.23 in 8.0 mi WNW 6.9 mph - N/A   Overcast
8:53 PM 27.0 °F 18.7 °F 21.0 °F 78% 30.23 in 7.0 mi NW 8.1 mph - N/A   Overcast
9:53 PM 27.0 °F 18.0 °F 21.0 °F 78% 30.24 in 7.0 mi WNW 9.2 mph - N/A   Overcast
10:53 PM 25.0 °F 17.1 °F 21.0 °F 85% 30.25 in 7.0 mi WNW 6.9 mph - N/A   Overcast
11:53 PM 25.0 °F 15.5 °F 19.9 °F 81% 30.25 in 7.0 mi NW 9.2 mph - N/A   Overcast